Location: Neuvy Saint Sepulchre
(46.5953°N, 1.8122°E)
Time: 10:34:43
(UTC+01:00)

ISS - Visible Passes

Search period start: 04 March 2024 00:00
Search period end: 14 March 2024 00:00
Orbit: 414 x 422 km, 51.6° (Epoch: 04 March)

Date Brightness Start Highest point End Pass type
(mag) Time Alt. Az. Time Alt. Az. Time Alt. Az.
04 Mar -0.8 04:36:46 17° ENE 04:36:46 17° ENE 04:37:45 10° E visible
04 Mar -3.8 06:09:42 25° WNW 06:11:33 76° SSW 06:14:55 10° ESE visible
05 Mar -3.5 05:23:46 70° ENE 05:23:46 70° ENE 05:26:55 10° ESE visible
06 Mar -0.9 04:37:55 16° E 04:37:55 16° E 04:38:46 10° E visible
06 Mar -2.9 06:10:51 24° W 06:12:07 32° SW 06:15:10 10° SSE visible
07 Mar -2.7 05:25:07 36° SSE 05:25:07 36° SSE 05:27:24 10° SE visible
08 Mar -1.7 06:12:28 14° SW 06:12:28 14° SW 06:14:09 10° SSW visible
09 Mar -1.0 05:27:00 10° S 05:27:00 10° S 05:27:03 10° S visible
13 Mar -2.2 20:29:40 10° SSW 20:31:33 23° S 20:31:33 23° S visible
